Mineola, TX

10:48 PM CDT on July 23, 2017 (GMT -0500)
Mineola

Weather History for KJDD - January, 2014

Change the Weather History Date:

Friday, January 24, 2014

  Actual Average (KTYR) Record (KTYR)
Temperature  
Mean Temperature 31 °F -  
Max Temperature 39 °F 56 °F 82 °F (1943)
Min Temperature 23 °F 37 °F 5 °F (1963)
Degree Days  
Heating Degree Days 34    
Moisture  
Dew Point 5 °F    
Average Humidity 34    
Maximum Humidity 55    
Minimum Humidity 21    
Precipitation  
Precipitation 0.00 in - - ()
Sea Level Pressure  
Sea Level Pressure 30.56 in    
Wind  
Wind Speed 6 mph (West)    
Max Wind Speed 10 mph    
Max Gust Speed -    
Visibility 10 miles    
Events      
Averages and records for this station are not official NWS values.
T = Trace of Precipitation, MM = Missing Value Source: NWS Daily Summary

Daily Weather History Graph

Daily Weather History Graph

Search for Another Location

Airport or City:

Trip Planner

Search our weather history database for the weather conditions in past years. The results will help you decide how hot, cold, wet, or windy it might be!

Date:

Astronomy

Jan. 24, 2014 Rise Set
Actual Time 7:21 AM CST 5:47 PM CST
Civil Twilight 6:55 AM CST 6:13 PM CST
Nautical Twilight 6:25 AM CST 6:43 PM CST
Astronomical Twilight 5:55 AM CST 7:12 PM CST
Moon 12:54 AM CST 12:03 PM CST
Length of Visible Light 11h 18m
Length of Day
10h 25m
Last Quarter, 44% of the Moon is Illuminated
Jan 24
Last Quarter
Jan 30
New
Feb 6
First Quarter
Feb 14
Full
Feb 22
Last Quarter

Hourly Weather History & Observations

Time (CST) Temp. Windchill Dew Point Humidity Pressure Visibility Wind Dir Wind Speed Gust Speed Precip Events Conditions
12:15 AM 30.2 °F 21.3 °F -0.4 °F 27% 30.74 in 10.0 mi North 10.4 mph - N/A   Clear
12:35 AM 30.2 °F 23.4 °F -0.4 °F 27% 30.74 in 10.0 mi North 6.9 mph - N/A   Scattered Clouds
12:55 AM 30.2 °F 21.9 °F -0.4 °F 27% 30.74 in 10.0 mi North 9.2 mph - N/A   Partly Cloudy
1:15 AM 28.4 °F 20.4 °F -0.4 °F 29% 30.73 in 10.0 mi North 8.1 mph - N/A   Clear
1:35 AM 28.4 °F 22.2 °F -0.4 °F 29% 30.73 in 10.0 mi North 5.8 mph - N/A   Clear
1:55 AM 28.4 °F 20.4 °F -0.4 °F 29% 30.73 in 10.0 mi North 8.1 mph - N/A   Partly Cloudy
2:15 AM 28.4 °F 20.4 °F 1.4 °F 31% 30.73 in 10.0 mi North 8.1 mph - N/A   Mostly Cloudy
2:35 AM 28.4 °F 21.2 °F 1.4 °F 31% 30.73 in 10.0 mi North 6.9 mph - N/A   Overcast
2:55 AM 28.4 °F 20.4 °F 1.4 °F 31% 30.72 in 10.0 mi North 8.1 mph - N/A   Overcast
3:15 AM 28.4 °F 19.7 °F 1.4 °F 31% 30.72 in 10.0 mi North 9.2 mph - N/A   Overcast
3:35 AM 28.4 °F 20.4 °F 1.4 °F 31% 30.72 in 10.0 mi NNW 8.1 mph - N/A   Overcast
3:55 AM 26.6 °F 21.2 °F 1.4 °F 34% 30.72 in 10.0 mi NNE 4.6 mph - N/A   Mostly Cloudy
4:15 AM 26.6 °F 19.1 °F 1.4 °F 34% 30.72 in 10.0 mi North 6.9 mph - N/A   Partly Cloudy
4:35 AM 26.6 °F 19.1 °F 1.4 °F 34% 30.72 in 10.0 mi NNW 6.9 mph - N/A   Partly Cloudy
4:55 AM 26.6 °F 19.1 °F 3.2 °F 37% 30.72 in 10.0 mi North 6.9 mph - N/A   Mostly Cloudy
5:15 AM 26.6 °F 19.1 °F 3.2 °F 37% 30.72 in 10.0 mi NNW 6.9 mph - N/A   Overcast
5:35 AM 26.6 °F 20.0 °F 5.0 °F 40% 30.72 in 10.0 mi North 5.8 mph - N/A   Overcast
5:55 AM 26.6 °F 19.1 °F 5.0 °F 40% 30.71 in 10.0 mi North 6.9 mph - N/A   Overcast
6:15 AM 26.6 °F 19.1 °F 5.0 °F 40% 30.71 in 10.0 mi North 6.9 mph - N/A   Overcast
6:35 AM 24.8 °F 16.9 °F 3.2 °F 40% 30.71 in 10.0 mi NNW 6.9 mph - N/A   Overcast
6:55 AM 24.8 °F 17.9 °F 5.0 °F 43% 30.71 in 10.0 mi NNW 5.8 mph - N/A   Mostly Cloudy
7:15 AM 23.0 °F - 3.2 °F 43% 30.71 in 10.0 mi Calm Calm - N/A   Partly Cloudy
7:35 AM 23.0 °F - 5.0 °F 46% 30.71 in 10.0 mi Calm Calm - N/A   Clear
7:55 AM 23.0 °F - 5.0 °F 46% 30.72 in 10.0 mi Calm Calm - N/A   Clear
8:15 AM 23.0 °F - 6.8 °F 50% 30.71 in 10.0 mi Calm Calm - N/A   Clear
8:35 AM 23.0 °F - 6.8 °F 50% 30.71 in 10.0 mi Calm Calm - N/A   Clear
8:55 AM 23.0 °F - 8.6 °F 54% 30.70 in 10.0 mi Calm Calm - N/A   Clear
9:15 AM 24.8 °F - 8.6 °F 50% 30.70 in 10.0 mi Calm Calm - N/A   Clear
9:35 AM 26.6 °F - 8.6 °F 47% 30.70 in 10.0 mi Calm Calm - N/A   Clear
9:55 AM 26.6 °F - 8.6 °F 47% 30.70 in 10.0 mi Calm Calm - N/A   Clear
10:15 AM 28.4 °F - 8.6 °F 43% 30.71 in 10.0 mi Calm Calm - N/A   Clear
10:35 AM 28.4 °F - 8.6 °F 43% 30.70 in 10.0 mi Calm Calm - N/A   Clear
10:55 AM 30.2 °F - 6.8 °F 37% 30.69 in 10.0 mi Calm Calm - N/A   Clear
11:15 AM 32.0 °F - 5.0 °F 32% 30.67 in 10.0 mi Calm Calm - N/A   Clear
11:35 AM 32.0 °F - 5.0 °F 32% 30.66 in 10.0 mi Calm Calm - N/A   Clear
11:55 AM 32.0 °F 27.5 °F 3.2 °F 30% 30.64 in 10.0 mi NNW 4.6 mph - N/A   Clear
12:15 PM 33.8 °F 29.6 °F 3.2 °F 28% 30.62 in 10.0 mi West 4.6 mph - N/A   Clear
12:35 PM 35.6 °F 32.8 °F 1.4 °F 24% 30.60 in 9.0 mi West 3.5 mph - N/A   Clear
12:55 PM 35.6 °F 30.7 °F 1.4 °F 24% 30.58 in 10.0 mi West 5.8 mph - N/A   Clear
1:15 PM 35.6 °F - 1.4 °F 24% 30.56 in 10.0 mi Calm Calm - N/A   Clear
1:35 PM 37.4 °F 32.8 °F 1.4 °F 22% 30.54 in 10.0 mi WNW 5.8 mph - N/A   Clear
1:55 PM 37.4 °F 32.1 °F 1.4 °F 22% 30.53 in 10.0 mi WNW 6.9 mph - N/A   Clear
2:15 PM 37.4 °F 32.8 °F 3.2 °F 24% 30.51 in 10.0 mi West 5.8 mph - N/A   Clear
2:35 PM 37.4 °F 32.8 °F 3.2 °F 24% 30.50 in 10.0 mi SSW 5.8 mph - N/A   Clear
2:55 PM 39.2 °F 33.6 °F 1.4 °F 21% 30.48 in 10.0 mi WSW 8.1 mph - N/A   Clear
3:15 PM 39.2 °F 35.9 °F 3.2 °F 22% 30.48 in 10.0 mi SSW 4.6 mph - N/A   Clear
3:35 PM 39.2 °F 33.6 °F 1.4 °F 21% 30.46 in 10.0 mi WSW 8.1 mph - N/A   Clear
3:55 PM 39.2 °F 34.2 °F 1.4 °F 21% 30.46 in 10.0 mi WSW 6.9 mph - N/A   Clear
4:15 PM 39.2 °F 33.0 °F 1.4 °F 21% 30.46 in 10.0 mi SSW 9.2 mph - N/A   Clear
4:35 PM 39.2 °F 33.6 °F 3.2 °F 22% 30.44 in 10.0 mi SSW 8.1 mph - N/A   Clear
4:55 PM 39.2 °F 34.2 °F 1.4 °F 21% 30.42 in 10.0 mi SSW 6.9 mph - N/A   Clear
5:15 PM 39.2 °F 35.0 °F 3.2 °F 22% 30.42 in 10.0 mi SW 5.8 mph - N/A   Clear
5:35 PM 37.4 °F 33.8 °F 3.2 °F 24% 30.41 in 10.0 mi SSW 4.6 mph - N/A   Clear
5:55 PM 37.4 °F 33.8 °F 5.0 °F 26% 30.40 in 10.0 mi SSW 4.6 mph - N/A   Clear
6:15 PM 35.6 °F 31.7 °F 5.0 °F 28% 30.39 in 10.0 mi SSW 4.6 mph - N/A   Clear
6:35 PM 35.6 °F 31.7 °F 5.0 °F 28% 30.38 in 10.0 mi SSW 4.6 mph - N/A   Clear
6:55 PM 33.8 °F - 5.0 °F 30% 30.38 in 10.0 mi Calm Calm - N/A   Clear
7:15 PM 32.0 °F - 5.0 °F 32% 30.37 in 10.0 mi Calm Calm - N/A   Clear
7:35 PM 32.0 °F 28.7 °F 6.8 °F 35% 30.36 in 10.0 mi SSW 3.5 mph - N/A   Clear
7:55 PM 32.0 °F 27.5 °F 8.6 °F 38% 30.35 in 10.0 mi SSW 4.6 mph - N/A   Clear
8:15 PM 33.8 °F 29.6 °F 8.6 °F 35% 30.35 in 10.0 mi SSW 4.6 mph - N/A   Clear
8:35 PM 33.8 °F 28.6 °F 8.6 °F 35% 30.34 in 10.0 mi SSW 5.8 mph - N/A   Clear
8:55 PM 33.8 °F 30.8 °F 8.6 °F 35% 30.35 in 10.0 mi SSW 3.5 mph - N/A   Clear
9:15 PM 32.0 °F 26.4 °F 8.6 °F 38% 30.34 in 10.0 mi SSW 5.8 mph - N/A   Clear
9:35 PM 32.0 °F 25.6 °F 8.6 °F 38% 30.33 in 10.0 mi SSW 6.9 mph - N/A   Clear
9:55 PM 32.0 °F 26.4 °F 8.6 °F 38% 30.33 in 10.0 mi SSW 5.8 mph - N/A   Clear
10:15 PM 32.0 °F 25.6 °F 10.4 °F 41% 30.32 in 10.0 mi SSW 6.9 mph - N/A   Clear
10:35 PM 32.0 °F 25.6 °F 10.4 °F 41% 30.32 in 10.0 mi SSW 6.9 mph - N/A   Clear
10:55 PM 32.0 °F 24.8 °F 14.0 °F 48% 30.31 in 10.0 mi SSW 8.1 mph - N/A   Clear
11:15 PM 32.0 °F 26.4 °F 15.8 °F 51% 30.30 in 10.0 mi SW 5.8 mph - N/A   Clear
11:35 PM 32.0 °F 25.6 °F 17.6 °F 55% 30.28 in 10.0 mi SSW 6.9 mph - N/A   Clear
11:55 PM 32.0 °F 24.8 °F 17.6 °F 55% 30.27 in 10.0 mi SSW 8.1 mph - N/A   Clear